Flag for France Weather past 2 weeks in Marseille, France

Now
45 °F

Passing clouds.


Feels Like: 38 °F
Forecast: 43 / 49 °F
Wind: 14 mph from Northwest

Location: Marseille / Marignane

Current Time: Jan 31, 2015 at 8:27:27 PM

Latest Report: Jan 31, 2015 at 8:00 PM


Visibility: N/A

Pressure: 29.27 "Hg

Humidity: 57%

Dew point: 30 °F

Location of MarseilleLocation

Historic Weather in Marseille — Graph

°F

Marseille temperature yesterday

Maximum temperature yesterday: 52 °F (at 12:00 AM)
Minimum temperature yesterday: 41 °F (at 8:30 AM)
Average temperature yesterday: 46 °F

Past Weeks' High & Low Weather Summary

 TemperatureHumidityPressure
High54 °F (Jan 18, 2:30 PM)100% (Jan 21, 4:00 AM)30.27 "Hg (Jan 21, 4:00 AM)
Low30 °F (Jan 18, 6:00 AM)43% (Jan 24, 3:30 PM)29.09 "Hg (Jan 30, 4:00 AM)
Average44 °F72%29.83 "Hg
* Reported Jan 16 7:00 PM — Jan 31 7:30 PM, Marseille, Weather by CustomWeather, © 2014

Note: Actual official high and low records may vary slightly from our data, if they occured in-between our weather recording intervals... More about our weather records

Advertising

Marseille weather history for previous 24 hours

 ConditionsComfort  
Time TempWeatherWind HumidityBarometerVisibility
7:30 PM
Jan 31
45 °FPassing clouds.13 mph61%29.24 "HgN/A
7:00 PM43 °FPassing clouds.8 mph71%29.24 "HgN/A
6:30 PM45 °FPassing clouds.6 mph66%29.21 "HgN/A
6:00 PM46 °FPassing clouds.9 mph62%29.21 "HgN/A
5:30 PM48 °FPassing clouds.9 mph58%29.18 "HgN/A
5:00 PM48 °FScattered clouds.13 mph54%29.18 "HgN/A
4:30 PM50 °FScattered clouds.16 mph54%29.15 "HgN/A
4:00 PM50 °FPassing clouds.13 mph54%29.15 "HgN/A
3:30 PM50 °FScattered clouds.14 mph54%29.15 "HgN/A
3:00 PM52 °FScattered clouds.13 mph54%29.15 "HgN/A
2:30 PM50 °FScattered clouds.14 mph62%29.15 "HgN/A
2:00 PM50 °FPassing clouds.8 mph54%29.15 "HgN/A
1:30 PM48 °FPassing clouds.7 mph62%29.15 "HgN/A
1:00 PM48 °FPassing clouds.5 mph58%29.15 "HgN/A
12:30 PM45 °FSunny.3 mph66%29.15 "Hg10 mi
12:00 PM43 °FSunny.6 mph76%29.15 "Hg10 mi
11:30 AM43 °FPassing clouds.5 mph76%29.15 "HgN/A
11:00 AM43 °FSunny.3 mph81%29.15 "Hg10 mi
10:30 AM43 °FSunny.No wind76%29.12 "Hg10 mi
10:00 AM41 °FSunny.No wind81%29.12 "Hg10 mi
9:30 AM39 °FSunny.3 mph81%29.12 "Hg10 mi
9:00 AM36 °FSunny.2 mph87%29.12 "Hg10 mi
8:30 AM32 °FSunny.6 mph93%29.12 "Hg10 mi
8:00 AM32 °FSunny.5 mph87%29.12 "Hg10 mi
7:30 AM34 °FPassing clouds.3 mph93%29.09 "HgN/A
7:00 AM32 °FClear.1 mph93%29.09 "Hg10 mi
6:30 AM34 °FClear.2 mph93%29.09 "Hg10 mi
6:00 AM34 °FClear.No wind87%29.09 "Hg10 mi
5:34 AM34 °FClear.5 mph87%29.09 "Hg10 mi
5:00 AM36 °FClear.No wind81%29.09 "Hg10 mi
4:00 AM36 °FClear.3 mph87%29.12 "Hg10 mi
3:30 AM36 °FClear.No wind87%29.12 "HgN/A
3:00 AM36 °FClear.3 mph93%29.15 "HgN/A
2:30 AM36 °FClear.1 mph87%29.15 "HgN/A
2:00 AM36 °FClear.3 mph87%29.15 "HgN/A
1:30 AM34 °FClear.6 mph87%29.15 "HgN/A
1:00 AM37 °FClear.6 mph87%29.15 "HgN/A
12:30 AM37 °FClear.1 mph87%29.18 "HgN/A
12:00 AM41 °FPassing clouds.6 mph76%29.15 "HgN/A
11:30 PM
Jan 30
43 °FClear.6 mph76%29.15 "Hg10 mi
11:00 PM43 °FClear.8 mph76%29.15 "Hg10 mi
10:30 PM43 °FClear.10 mph81%29.15 "Hg10 mi
10:00 PM45 °FClear.15 mph76%29.15 "Hg10 mi
9:30 PM45 °FClear.14 mph76%29.15 "Hg10 mi
9:00 PM45 °FClear.17 mph76%29.18 "Hg10 mi
8:30 PM46 °FClear.18 mph71%29.18 "Hg10 mi
8:00 PM46 °FClear.21 mph71%29.18 "Hg10 mi
Weather by CustomWeather, © 2014

See weather overviewHow to use our weather pages